This is the latest recevied weather packets stored in our database for station/object KE0LFX. If no packets are shown the sender has not sent any weather packets the latest 10 day(s).
| Time | Temp. | Humidity | Pressure | Rain* | Wind** | Luminosity | Snow |
|---|---|---|---|---|---|---|---|
| 1777673881 | 12.22° C | 54% | 1021.2 hPa | 0 mm | - | 262 W/m² | - |
| 1777673578 | 12.22° C | 54% | 1021.1 hPa | 0 mm | - | 246 W/m² | - |
| 1777673276 | 11.67° C | 53% | 1021.1 hPa | 0 mm | - | 265 W/m² | - |
| 1777672973 | 12.22° C | 55% | 1021 hPa | 0 mm | - | 289 W/m² | - |
| 1777672670 | 11.67° C | 54% | 1021 hPa | 0 mm | - | 194 W/m² | - |
| 1777672365 | 11.67° C | 54% | 1021.2 hPa | 0 mm | - | 207 W/m² | - |
| 1777672061 | 11.67° C | 54% | 1021.1 hPa | 0 mm | - | 202 W/m² | - |
| 1777671757 | 12.22° C | 53% | 1021 hPa | 0 mm | - | 182 W/m² | - |
| 1777671453 | 11.67° C | 56% | 1021.1 hPa | 0 mm | - | 198 W/m² | - |
| 1777671150 | 11.67° C | 57% | 1021.1 hPa | 0 mm | - | 257 W/m² | - |
| 1777670846 | 11.11° C | 57% | 1021.1 hPa | 0 mm | - | 258 W/m² | - |
| 1777670542 | 11.11° C | 60% | 1021.1 hPa | 0 mm | - | 218 W/m² | - |
| 1777670239 | 11.11° C | 61% | 1021.2 hPa | 0 mm | - | 160 W/m² | - |
| 1777669936 | 11.11° C | 61% | 1021.2 hPa | 0 mm | - | 165 W/m² | - |
| 1777669633 | 11.11° C | 66% | 1021.4 hPa | 0 mm | - | 199 W/m² | - |
| 1777669330 | 10.56° C | 68% | 1021.2 hPa | 0 mm | - | 241 W/m² | - |
| 1777669027 | 10.56° C | 71% | 1021.4 hPa | 0 mm | - | 252 W/m² | - |
| 1777668723 | 10° C | 71% | 1021.4 hPa | 0 mm | - | 223 W/m² | - |
| 1777668421 | 9.44° C | 74% | 1021.6 hPa | 0 mm | - | 236 W/m² | - |
| 1777668116 | 8.89° C | 74% | 1021.4 hPa | 0 mm | - | 131 W/m² | - |
| 1777667813 | 10° C | 70% | 1021.6 hPa | 0 mm | - | 67 W/m² | - |
| 1777667511 | 10° C | 67% | 1021.4 hPa | 0 mm | - | 52 W/m² | - |
| 1777667208 | 10.56° C | 63% | 1021.3 hPa | 0 mm | - | 48 W/m² | - |
| 1777666905 | 10.56° C | 62% | 1021.2 hPa | 0 mm | - | 52 W/m² | - |
| 1777666601 | 11.11° C | 58% | 1021.4 hPa | 0 mm | - | 53 W/m² | - |
* Rain latest hour (hover to see other rain measurements)
** Current wind speed in m/s (hover to see current wind gust speed)